CZ-6A DEB, 55006

Orbit data source: Space-Track

CZ-6A DEB, 55006 is space debris in SSO originally from a launch on Fri, 11 Nov 2022 UTC launched from the Taiyaun Space Center, China (TSC). Debris objects in space refer to the collection of defunct objects orbiting the Earth. Examples of debris include non-operational satellites, rocket bodies, and fragments generated from explosions, collisions, or faulty payload assembly.

Loading next visibility...
Identifier
55006, 2022-151UW
Orbit
SSO
Country
Flag of CNCN / PRC
Related business
Manufacturer
SAST
Mission
Spacecraft
Bus & Motor
Unknown
Mass
Unknown
Launch date (UTC)
2022-11-11 (4 years ago)
Launch vehicle
Unknown
Launch site
Taiyaun Space Center, China (TSC)
Object type
Payload
Rocket body
Debris
Shape & HBR
Unknown shape, 0.1 m
Radar Cross Section
Medium (>0.1 m² and <1 m²)

Expand to show TLE details & history
Last TLE update: 14 hours ago

TLE from 14 hours ago
0 CZ-6A DEB
1 55006U 22151UW  26207.46234690  .00001225  00000-0  64143-3 0  9999
2 55006  98.8218 210.9747 0040634 214.7411 145.1108 14.15754502189687
Epoch: 2026-07-26T11:05Z
TLE epoch observation values (Epoch: 2026-07-26T11:05:46.772Z)
Latitude
-0.00002°
Longitude
100.36989°
Altitude
866.753 km
Speed
7.407 km/s
True Right ascension
14h 03m 53s
True Declination
0° 00' 00"
Sunlit
Object was in daylight at epoch
Visualization orbit readout
Latitude
Unknown
Longitude
Unknown
Altitude
Unknown
Speed
Unknown
Apparent Right ascension
Unknown
Apparent Declination
Unknown
Sunlit
N/A
Visualization observer readout
Local Sidereal Time
13:55:49
Azimuth
Unknown
Elevation
Unknown
Doppler factor
Unknown
Orbital elements
Apogee altitude
866.234 km
Perigee altitude
807.599 km
Semi-major axis
7,215.053 km
Eccentricity
0.00406
Inclination
98.8218°
RAAN
210.9747°
Arg. of periapsis
214.7411°
True anomaly
145.37603°
Mean anomaly
145.1108°
Eccentric anomaly
145.24353°
Mean motion
3.54147 °/min
Orbital period
101.65 mins
BSTAR
0.00064143
Loading maneuver chart data...
Computing Atmospheric mass density...
Loading historical data...
Loading historical data...
Loading historical data...
Loading historical data...
Loading historical data...
Loading historical data...
Loading historical data...

Documentation

Showing up to 5 results
|